ATLAS 5 CENTAUR DEB, 46637

Orbit data source: Space-Track

ATLAS 5 CENTAUR DEB, 46637 is space debris in HEO originally from a launch on Wed, 17 Sep 2014 UTC launched from the Air Force Eastern Test Range (AFETR). Debris objects in space refer to the collection of defunct objects orbiting the Earth. Examples of debris include non-operational satellites, rocket bodies, and fragments generated from explosions, collisions, or faulty payload assembly.

Loading next visibility...
ATLAS 5 CENTAUR DEB details
Identifier
46637, 2014-055CM
Orbit
HEO
Last TLE update1 day ago
Origin
Flag of USULA (US)
ManufacturerUnknown
MissionSpacecraft
Bus & MotorUnknown
MassUnknown
Launch date (UTC)
2014-09-17 (10 years ago)
Launch vehicleUnknown
Launch site
Air Force Eastern Test Range (AFETR)
Object type
Payload
Rocket body
Debris
Shape & HBRUnknown
Radar Cross SectionSmall (<0.1 m²)

Expand to show TLE details & history

TLE from 1 day ago
0 ATLAS 5 CENTAUR DEB
1 46637U 14055CM  24360.40206946  .00000001  00000-0  00000+0 0  9997
2 46637  20.5592 146.0708 5119653 160.6967 229.5356  1.94676010 29986
Epoch: 2024-12-25T09:38Z
Definitive object data (Epoch: 2024-12-25T09:38:58.801Z)
Latitude-0.00003°
Longitude-93.08757°
Altitude32,288.272 km
Speed2.43 km/s
True Right ascension09h 44m 12s
True Declination0° 00' 00"
Sunlit
Object was in daylight at TLE epoch
Visualization TLE readout
Latitude3.53813°
Longitude-83.72058°
Altitude29,738.901 km
Speed2.713 km/s
Apparent Right ascension10h 21m 10s
Apparent Declination-3° 23' 20"
Sunlit
Object is in daylight
Visualization observer readout
Local Sidereal Time10:24:56
Azimuth181.373° SSW
Elevation46.686°
Doppler factor1
Orbital elements
Apogee altitude34,589.019 km
Perigee altitude6,845.31 km
Semi-major axis27,095.302 km
Eccentricity0.5119653
Inclination20.5592°
RAAN146.0708°
Arg. of periapsis160.6967°
True anomaly199.34117°
Mean anomaly229.5356°
Eccentric anomaly213.39166°
Mean motion0.48663 °/min
BSTARUnknown
Orbital period739.78 mins
Loading maneuver chart data...

ATLAS 5 CENTAUR DEB Visibility forecast

Observer location: undefined°, undefined

Span
Click to sort rows by Start time (UTC) header in descending order
Start Az.
Max El. time (UTC)
Max El. Az.
Max El.
End time (UTC)
End Az.
195 mins2024-12-26 11:03:39.408Z181.372° SSW2024-12-26 13:04:39.408Z160.873° S39.811°2024-12-26 14:18:39.408Z95.509° ESE
404 mins2024-12-27 04:19:39.408Z198.361° SSW2024-12-27 11:03:39.408Z195.362° SSW34.112°2024-12-27 11:03:39.408Z195.362° SSW
|